QPF
0.00 0.00 0.00 0.00 0.00 0.00 0.00 0.00 0.00 0.00 0.00 0.00 0.00 0.00 0.00 0.00 0.00 0.00 0.00 0.00 0.00 0.00 0.00 0.00 0.00 0.00 0.00 0.00 0.00 0.00 0.00 0.00 0.00 0.00 0.00 0.00 0.00 0.00 0.00 0.00 0.00 0.00 0.00 0.00 0.00
0.00 0.00 0.00 0.00 0.00 0.00 0.00 0.00 0.00 0.00 0.00 0.00 0.00 0.00 0.00 0.00 0.00 0.00 0.00 0.00 0.00 0.00 0.00 0.00 0.00 0.00 0.00 0.00 0.00 0.00 0.00 0.00 0.00 0.00 0.00 0.00 0.00 0.00 0.00 0.00 0.00 0.00 0.00 0.00 0.00
0.00 0.00 0.00 0.00 0.00 0.00 0.00 0.00 0.00 0.00 0.00 0.00 0.00 0.00 0.00 0.00 0.00 0.00 0.00 0.00 0.00 0.00 0.00 0.00 0.00 0.00 0.00 0.00 0.00 0.00 0.00 0.00 0.00 0.00 0.00 0.00 0.00 0.00 0.00 0.00 0.00 0.00 0.00 0.00 0.00
0.00 0.00 0.00 0.00 0.00 0.00 0.00 0.00 0.00 0.00 0.00 0.00 0.00 0.00 0.00 0.00 0.00 0.00 0.00 0.00 0.00 0.00 0.00 0.00 0.00 0.00 0.00 0.00 0.00 0.00 0.00 0.00 0.00 0.00 0.00 0.00 0.00 0.00 0.00 0.00 0.00 0.00 0.00 0.00 0.00
0.00 0.00 0.00 0.00 0.00 0.00 0.00 0.00 0.00 0.00 0.00 0.00 0.00 0.00 0.01 0.00 0.00 0.00 0.00 0.00 0.00 0.00 0.00 0.00 0.00 0.00 0.00 0.00 0.00 0.00 0.00 0.00 0.00 0.00 0.00 0.00 0.00 0.00 0.00 0.00 0.00 0.00 0.00 0.00 0.00
0.00 0.00 0.00 0.00 0.00 0.00 0.00 0.00 0.00 0.00 0.00 0.00 0.00 0.01 0.01 0.00 0.00 0.00 0.00 0.00 0.00 0.00 0.00 0.00 0.00 0.00 0.00 0.00 0.00 0.00 0.00 0.00 0.00 0.00 0.00 0.00 0.00 0.00 0.00 0.00 0.00 0.00 0.00 0.00 0.00
0.00 0.00 0.00 0.00 0.00 0.00 0.00 0.00 0.00 0.00 0.00 0.00 0.00 0.01 0.00 0.00 0.00 0.00 0.00 0.00 0.00 0.00 0.00 0.00 0.00 0.00 0.00 0.00 0.00 0.00 0.00 0.00 0.00 0.00 0.00 0.00 0.00 0.00 0.00 0.00 0.00 0.00 0.00 0.00 0.00
0.00 0.00 0.00 0.00 0.00 0.00 0.00 0.00 0.00 0.00 0.00 0.00 0.00 0.00 0.00 0.00 0.00 0.00 0.00 0.00 0.00 0.00 0.00 0.00 0.00 0.00 0.00 0.00 0.00 0.00 0.00 0.00 0.00 0.00 0.00 0.00 0.00 0.00 0.00 0.00 0.00 0.00 0.00 0.00 0.00
0.00 0.00 0.00 0.00 0.00 0.00 0.00 0.00 0.00 0.00 0.00 0.00 0.00 0.00 0.00 0.00 0.00 0.00 0.00 0.00 0.00 0.00 0.00 0.00 0.00 0.00 0.00 0.00 0.00 0.00 0.00 0.00 0.00 0.00 0.00 0.00 0.00 0.00 0.00 0.00 0.00 0.00 0.00 0.00 0.00
0.00 0.00 0.00 0.00 0.00 0.00 0.00 0.00 0.00 0.00 0.00 0.00 0.01 0.00 0.00 0.00 0.00 0.00 0.00 0.00 0.00 0.00 0.00 0.00 0.00 0.00 0.00 0.00 0.00 0.00 0.00 0.00 0.00 0.00 0.00 0.00 0.00 0.00 0.00 0.00 0.00 0.00 0.00 0.00 0.00
0.00 0.00 0.00 0.00 0.00 0.00 0.00 0.00 0.00 0.00 0.00 0.01 0.00 0.00 0.00 0.00 0.00 0.00 0.00 0.01 0.00 0.00 0.00 0.00 0.00 0.00 0.00 0.00 0.00 0.00 0.00 0.00 0.00 0.00 0.00 0.00 0.00 0.00 0.00 0.00 0.00 0.00 0.00 0.00 0.00
0.00 0.00 0.00 0.00 0.00 0.00 0.00 0.00 0.00 0.00 0.00 0.00 0.00 0.00 0.00 0.00 0.00 0.00 0.00 0.00 0.01 0.01 0.00 0.00 0.00 0.00 0.00 0.00 0.00 0.00 0.00 0.00 0.00 0.00 0.00 0.00 0.00 0.00 0.00 0.00 0.00 0.00 0.00 0.00 0.00
0.00 0.00 0.00 0.00 0.00 0.00 0.00 0.00 0.00 0.00 0.00 0.00 0.00 0.00 0.00 0.01 0.00 0.00 0.00 0.00 0.02 0.04 0.00 0.00 0.00 0.00 0.00 0.00 0.00 0.00 0.00 0.00 0.00 0.00 0.00 0.00 0.00 0.00 0.00 0.00 0.00 0.00 0.00 0.00 0.00
0.00 0.00 0.00 0.00 0.00 0.00 0.00 0.00 0.00 0.00 0.00 0.00 0.00 0.00 0.00 0.00 0.01 0.00 0.00 0.00 0.00 0.02 0.01 0.00 0.00 0.00 0.00 0.00 0.00 0.00 0.00 0.00 0.00 0.00 0.00 0.00 0.00 0.00 0.00 0.00 0.00 0.00 0.00 0.00 0.00
0.00 0.00 0.00 0.00 0.00 0.00 0.00 0.00 0.00 0.00 0.03 0.00 0.00 0.00 0.00 0.01 0.01 0.01 0.00 0.00 0.00 0.00 0.02 0.01 0.00 0.00 0.00 0.00 0.00 0.00 0.00 0.00 0.00 0.00 0.00 0.00 0.00 0.00 0.00 0.00 0.00 0.00 0.00 0.00 0.00
0.00 0.00 0.00 0.00 0.00 0.00 0.00 0.00 0.00 0.02 0.02 0.00 0.00 0.00 0.00 0.00 0.00 0.01 0.02 0.01 0.01 0.01 0.00 0.00 0.00 0.00 0.00 0.00 0.00 0.00 0.00 0.00 0.00 0.00 0.00 0.00 0.00 0.00 0.00 0.00 0.00 0.00 0.00 0.00 0.00
0.00 0.00 0.00 0.00 0.00 0.00 0.00 0.01 0.08 0.03 0.00 0.00 0.00 0.00 0.01 0.01 0.00 0.02 0.04 0.04 0.04 0.04 0.01 0.00 0.00 0.00 0.00 0.00 0.00 0.00 0.00 0.01 0.01 0.00 0.00 0.00 0.00 0.00 0.00 0.00 0.00 0.00 0.00 0.00 0.00
0.00 0.00 0.00 0.00 0.00 0.00 0.00 0.03 0.04 0.01 0.00 0.00 0.00 0.00 0.00 0.00 0.00 0.01 0.03 0.03 0.03 0.04 0.05 0.04 0.04 0.00 0.00 0.00 0.00 0.00 0.00 0.01 0.02 0.00 0.00 0.00 0.00 0.00 0.00 0.00 0.00 0.00 0.00 0.00 0.00
0.00 0.00 0.00 0.00 0.00 0.00 0.00 0.01 0.01 0.00 0.00 0.00 0.00 0.00 0.00 0.00 0.00 0.00 0.01 0.05 0.06 0.02 0.04 0.07 0.05 0.02 0.01 0.00 0.00 0.00 0.00 0.00 0.00 0.00 0.00 0.00 0.00 0.00 0.00 0.00 0.00 0.00 0.00 0.00 0.00
0.00 0.00 0.00 0.00 0.00 0.00 0.00 0.00 0.00 0.00 0.00 0.00 0.01 0.01 0.01 0.00 0.00 0.00 0.00 0.02 0.04 0.02 0.01 0.06 0.03 0.03 0.01 0.01 0.00 0.00 0.00 0.01 0.00 0.00 0.00 0.00 0.00 0.00 0.00 0.00 0.00 0.00 0.00 0.00 0.00
0.00 0.00 0.00 0.00 0.00 0.00 0.00 0.00 0.00 0.00 0.00 0.00 0.00 0.01 0.01 0.01 0.01 0.00 0.02 0.01 0.00 0.00 0.00 0.00 0.01 0.03 0.02 0.01 0.00 0.00 0.00 0.00 0.00 0.00 0.00 0.00 0.00 0.00 0.00 0.00 0.00 0.00 0.00 0.00 0.00
0.00 0.00 0.00 0.00 0.00 0.00 0.00 0.00 0.00 0.00 0.00 0.00 0.00 0.00 0.01 0.02 0.02 0.00 0.01 0.00 0.00 0.00 0.00 0.00 0.01 0.01 0.01 0.01 0.00 0.00 0.00 0.00 0.00 0.00 0.00 0.00 0.05 0.00 0.00 0.00 0.00 0.00 0.00 0.00 0.00
0.00 0.00 0.00 0.00 0.00 0.00 0.00 0.00 0.00 0.00 0.00 0.00 0.00 0.00 0.01 0.03 0.01 0.00 0.00 0.00 0.00 0.00 0.00 0.00 0.00 0.02 0.01 0.03 0.01 0.00 0.00 0.00 0.00 0.00 0.00 0.01 0.10 0.04 0.00 0.00 0.00 0.00 0.00 0.00 0.00
0.00 0.00 0.00 0.00 0.00 0.00 0.00 0.00 0.00 0.00 0.00 0.00 0.00 0.01 0.02 0.01 0.00 0.00 0.00 0.00 0.00 0.00 0.01 0.01 0.00 0.01 0.04 0.03 0.04 0.03 0.02 0.00 0.00 0.00 0.00 0.02 0.07 0.07 0.01 0.00 0.00 0.00 0.00 0.00 0.00
0.00 0.00 0.00 0.00 0.00 0.00 0.00 0.00 0.00 0.00 0.00 0.00 0.00 0.00 0.01 0.00 0.00 0.00 0.00 0.00 0.00 0.00 0.00 0.00 0.00 0.00 0.00 0.03 0.03 0.02 0.01 0.00 0.00 0.00 0.03 0.06 0.05 0.05 0.03 0.01 0.00 0.00 0.00 0.00 0.00
0.00 0.00 0.00 0.00 0.00 0.00 0.00 0.00 0.00 0.00 0.00 0.01 0.01 0.00 0.01 0.01 0.01 0.00 0.00 0.00 0.00 0.00 0.00 0.00 0.00 0.00 0.01 0.02 0.02 0.01 0.00 0.00 0.00 0.00 0.03 0.09 0.06 0.03 0.03 0.01 0.00 0.00 0.00 0.00 0.00
0.00 0.01 0.01 0.00 0.00 0.00 0.00 0.00 0.00 0.00 0.00 0.00 0.00 0.01 0.00 0.01 0.00 0.00 0.00 0.00 0.00 0.00 0.00 0.00 0.01 0.03 0.04 0.04 0.00 0.01 0.00 0.00 0.00 0.00 0.02 0.04 0.03 0.00 0.01 0.00 0.00 0.00 0.00 0.00 0.00
MSLP
1019.59 1019.10 1018.63 1018.17 1017.72 1017.30 1016.90 1016.47 1016.01 1015.56 1015.06 1014.58 1014.09 1013.69 1013.34 1012.83 1011.91 1010.29 1007.94 1006.20 1006.21 1006.57 1007.24 1006.85 1005.54 1005.13 1005.36 1004.72 1003.56 1002.91 1001.62 999.35 997.98 997.01 996.15 995.27 994.03 993.24 993.31 993.58 993.65 994.17 994.56 995.65 996.69
1019.66 1019.15 1018.63 1018.12 1017.61 1017.11 1016.61 1016.16 1015.74 1015.28 1014.88 1014.47 1014.10 1013.73 1013.34 1012.93 1011.68 1008.73 1005.55 1005.35 1005.27 1005.81 1006.23 1006.10 1005.12 1004.16 1004.23 1003.39 1002.85 1001.81 1000.23 998.19 998.21 997.01 995.79 994.89 994.20 993.50 993.27 993.62 993.88 994.32 994.98 995.67 996.67
1019.58 1019.03 1018.52 1018.03 1017.55 1017.03 1016.48 1015.96 1015.45 1014.97 1014.56 1014.19 1013.92 1013.59 1013.43 1013.09 1010.49 1004.59 1004.32 1004.27 1004.05 1005.23 1005.19 1005.19 1004.94 1003.76 1002.99 1002.66 1001.64 1000.78 998.26 998.75 997.76 997.05 996.06 994.87 994.13 993.63 993.25 993.83 994.50 994.98 995.47 995.75 996.62
1019.57 1018.95 1018.34 1017.77 1017.20 1016.63 1016.12 1015.55 1014.98 1014.43 1014.02 1013.83 1013.55 1013.48 1013.34 1012.76 1008.33 1003.83 1004.49 1004.40 1004.17 1004.77 1005.01 1004.58 1004.04 1003.26 1001.93 1000.96 1000.86 999.79 998.87 998.59 997.76 996.69 996.03 995.09 994.42 993.67 993.54 994.42 995.04 995.37 995.71 995.85 996.28
1019.45 1018.80 1018.14 1017.45 1016.79 1016.11 1015.49 1014.86 1014.39 1013.96 1013.61 1013.38 1013.28 1013.31 1013.01 1010.64 1006.08 1004.59 1004.14 1004.30 1004.64 1004.47 1004.03 1003.78 1003.39 1002.61 1000.85 1000.20 999.92 998.60 998.34 998.16 997.78 997.14 996.25 995.85 994.84 994.40 994.22 994.46 994.90 995.32 995.58 995.80 995.91
1019.33 1018.75 1018.08 1017.28 1016.51 1015.71 1014.84 1014.03 1013.44 1012.99 1012.64 1012.63 1012.61 1012.78 1012.37 1008.88 1004.92 1003.77 1002.87 1003.00 1003.70 1003.60 1003.00 1002.81 1002.02 1001.52 1000.36 999.50 998.31 998.13 998.02 997.40 996.99 996.56 996.24 995.84 995.30 994.88 994.95 995.07 995.13 995.72 995.67 995.73 995.92
1019.06 1018.45 1017.75 1016.96 1016.08 1015.16 1014.23 1013.25 1012.36 1011.91 1011.76 1011.50 1011.52 1011.93 1010.85 1006.55 1004.53 1003.44 1002.91 1002.58 1002.18 1002.17 1001.69 1001.51 1001.16 1000.42 999.95 998.71 998.15 997.71 997.19 996.55 995.90 995.94 995.79 996.11 995.31 994.22 995.23 995.64 995.49 995.57 995.91 996.02 996.33
1018.94 1018.22 1017.43 1016.57 1015.58 1014.66 1013.61 1012.47 1011.40 1010.94 1011.02 1010.54 1010.36 1010.49 1008.39 1005.11 1004.56 1003.80 1003.31 1002.85 1002.50 1001.41 1001.35 1001.09 1000.56 1000.08 999.33 998.83 998.03 996.99 996.98 995.46 994.61 995.32 995.51 996.17 993.40 994.75 995.31 995.49 995.45 995.61 995.93 996.29 996.48
1018.70 1017.85 1017.02 1016.10 1015.01 1014.00 1013.10 1011.61 1010.22 1009.25 1010.19 1009.94 1009.78 1008.91 1006.12 1002.89 1003.21 1002.25 1002.17 1001.82 1001.54 1001.71 1000.85 1000.58 1000.53 999.86 999.78 998.92 997.93 996.68 994.69 994.38 994.71 994.43 995.00 994.86 992.24 994.88 994.73 994.92 995.30 995.60 996.10 996.45 996.78
1018.39 1017.51 1016.33 1015.39 1014.26 1013.38 1012.37 1010.52 1008.33 1007.98 1008.91 1008.61 1008.43 1008.56 1004.83 1002.83 1001.50 1001.40 1001.30 1001.15 1001.24 1000.89 1001.03 1000.91 1000.81 999.98 998.97 998.31 995.63 994.82 994.49 993.95 993.67 993.96 993.90 993.68 993.41 994.60 994.22 994.19 994.49 995.17 995.87 996.23 996.42
1018.01 1017.04 1015.92 1014.90 1013.60 1012.63 1011.94 1009.69 1007.11 1006.62 1006.68 1007.12 1006.24 1005.43 1003.47 1002.20 1001.40 1000.72 1000.06 1000.78 1001.16 1000.71 1000.39 1000.49 1000.60 999.11 997.58 997.28 996.69 995.69 994.72 993.97 993.50 992.83 993.10 992.53 993.30 993.49 993.77 993.62 994.02 994.16 995.02 995.57 995.84
1017.65 1016.55 1015.49 1014.13 1012.95 1011.93 1011.23 1008.95 1007.94 1007.74 1005.53 1005.92 1004.22 1003.41 1003.79 1003.02 1002.31 1001.10 1000.16 1000.32 1001.04 1001.03 999.77 999.60 999.03 999.00 998.52 998.07 997.37 996.30 995.09 993.61 992.89 992.70 992.49 992.15 992.01 992.63 993.07 993.06 993.36 993.74 994.22 994.80 995.54
1017.23 1015.98 1014.96 1013.44 1012.43 1010.92 1008.90 1008.01 1007.70 1007.82 1007.52 1004.69 1004.10 1002.66 1003.19 1003.59 1003.01 1001.09 1000.52 1000.25 1000.09 1000.11 1000.23 998.89 998.02 998.30 998.48 997.77 996.65 995.68 994.92 993.90 992.88 991.78 991.67 991.66 991.32 991.66 992.30 992.68 993.02 993.17 993.60 993.96 994.55
1016.93 1015.51 1014.38 1013.67 1011.30 1010.00 1007.95 1007.85 1007.66 1008.18 1007.21 1004.41 1004.27 1002.33 1002.76 1003.25 1002.48 1001.79 1001.95 1001.64 1000.51 999.83 999.82 999.33 997.61 996.76 996.78 996.79 996.31 994.80 994.65 994.35 993.35 992.11 990.74 990.74 990.46 990.94 991.81 992.29 992.24 992.39 992.80 993.28 993.77
1016.64 1015.56 1014.27 1013.65 1012.04 1009.32 1008.13 1007.40 1007.91 1009.11 1007.16 1003.94 1001.97 1001.19 1001.48 1002.49 1001.43 1001.07 1001.87 1001.37 1000.98 1000.00 1000.30 999.60 998.04 997.11 996.34 995.33 995.47 994.54 994.02 994.17 993.92 992.71 991.69 990.40 991.00 990.43 991.20 991.47 990.93 991.15 992.03 992.67 993.30
1016.03 1014.91 1014.41 1011.75 1010.35 1008.72 1007.83 1007.85 1008.60 1009.15 1005.83 1003.18 1002.77 1001.50 1001.19 1001.45 1001.21 1001.30 1002.54 1001.81 1001.12 1001.08 1000.56 999.01 998.01 996.86 996.78 995.39 994.68 994.66 994.44 993.95 993.93 993.27 991.96 991.00 990.56 990.40 989.97 989.43 989.93 990.58 991.14 992.15 992.81
1015.69 1014.19 1013.79 1012.26 1009.66 1008.23 1007.92 1008.25 1008.04 1007.27 1005.74 1004.83 1003.41 1002.47 1002.05 1001.95 1001.53 1001.61 1001.78 1002.03 1002.13 1002.04 1001.35 999.78 997.82 996.98 997.27 996.22 995.29 994.46 993.92 993.48 993.58 992.62 992.07 991.73 990.25 989.18 989.14 988.83 988.88 989.46 990.39 991.48 992.52
1015.27 1013.19 1011.04 1009.96 1009.19 1008.22 1007.44 1007.23 1006.98 1006.91 1006.62 1006.09 1004.74 1003.32 1002.35 1002.30 1002.28 1001.73 1001.74 1001.98 1000.52 1001.22 1001.09 1000.40 997.36 996.36 996.31 995.28 994.64 994.28 993.42 992.47 992.65 992.70 992.16 991.28 988.84 988.19 988.23 988.17 987.53 988.46 989.72 991.08 992.36
1014.51 1011.22 1009.39 1009.38 1008.87 1008.24 1007.11 1006.81 1008.04 1007.70 1007.24 1006.19 1005.26 1003.96 1003.49 1003.44 1003.05 1002.21 1002.19 1002.96 1002.74 1002.59 1002.04 1000.31 999.05 997.71 996.33 995.15 994.72 993.42 993.09 992.76 992.90 992.61 991.75 990.72 989.74 989.40 988.42 988.70 988.29 988.42 989.62 991.12 992.35
1014.57 1011.18 1009.15 1009.00 1008.51 1007.94 1007.74 1008.50 1008.17 1007.96 1007.42 1006.74 1006.18 1005.69 1004.93 1004.34 1003.65 1002.88 1002.18 1002.65 1003.20 1003.13 1003.16 1001.67 1000.05 998.23 997.67 997.20 994.03 993.07 992.77 992.58 992.69 992.05 991.13 990.31 989.84 989.16 988.95 989.61 990.42 991.15 990.99 991.90 992.81
1013.41 1009.98 1008.92 1008.61 1007.35 1007.71 1007.84 1008.41 1008.27 1007.91 1007.33 1006.98 1006.42 1006.35 1006.18 1005.16 1005.03 1004.01 1002.75 1002.43 1002.83 1002.90 1003.00 1002.35 1001.33 1000.16 998.48 996.75 994.99 993.10 992.59 992.49 992.87 992.82 991.85 990.39 989.76 989.90 989.50 990.28 992.17 994.30 994.97 995.03 995.00
1013.77 1009.90 1008.97 1008.74 1008.00 1008.95 1008.95 1008.96 1008.72 1007.87 1007.27 1006.92 1007.00 1006.93 1006.74 1006.37 1005.13 1004.29 1003.09 1002.91 1003.31 1003.72 1003.64 1003.51 1002.75 1000.46 998.02 995.90 994.67 992.89 993.68 993.51 992.07 992.71 992.41 991.57 991.69 991.65 989.38 991.27 994.09 996.68 997.43 997.75 997.88
1013.99 1010.28 1009.07 1009.48 1009.59 1009.81 1009.46 1009.32 1008.56 1007.81 1007.47 1007.26 1007.47 1007.17 1007.44 1006.99 1006.15 1004.60 1003.66 1003.02 1003.14 1003.50 1003.85 1003.99 1002.90 1000.34 997.18 996.16 994.89 993.44 993.13 993.37 992.80 993.46 993.09 993.22 994.57 995.45 993.86 995.24 996.95 997.67 998.98 999.61 999.95
1014.67 1011.09 1010.52 1010.45 1010.86 1010.73 1009.49 1009.11 1008.04 1008.17 1007.79 1007.86 1007.42 1007.56 1007.37 1006.89 1006.57 1005.31 1004.38 1003.35 1003.32 1003.44 1003.68 1004.48 1003.25 1001.66 998.81 997.52 995.78 994.45 993.20 992.73 993.20 993.63 994.00 995.19 996.74 997.88 997.75 998.09 999.00 999.65 1000.15 1000.76 1001.34
1015.50 1014.14 1015.03 1012.90 1012.27 1011.75 1009.93 1008.85 1008.80 1008.73 1008.50 1007.74 1007.62 1007.60 1007.57 1006.66 1005.87 1004.75 1004.22 1003.93 1003.79 1002.91 1003.65 1004.51 1003.30 1000.98 998.84 997.40 995.54 994.17 994.58 993.75 993.46 994.35 995.49 995.77 997.43 998.85 999.65 1000.25 1000.25 1000.85 1001.34 1001.95 1002.70
1017.97 1017.44 1016.66 1015.36 1013.19 1011.41 1009.96 1010.18 1009.82 1009.10 1009.38 1008.39 1008.51 1007.66 1007.17 1006.63 1006.36 1004.52 1004.44 1004.19 1004.31 1003.84 1004.27 1004.50 1003.01 1001.14 998.30 996.13 994.86 994.19 994.17 993.81 993.77 995.71 996.95 996.64 998.57 1000.05 1001.04 1001.64 1001.84 1002.26 1002.48 1003.12 1003.93
1019.15 1018.83 1017.67 1016.01 1013.31 1012.04 1011.37 1011.15 1010.41 1010.25 1009.62 1009.29 1008.54 1007.65 1006.25 1005.43 1004.50 1003.37 1002.97 1002.90 1003.58 1003.96 1004.15 1003.74 1002.69 1000.15 996.26 994.49 993.57 992.99 992.81 994.17 994.88 995.96 996.51 998.70 999.90 1001.19 1002.22 1002.99 1003.15 1003.35 1004.17 1004.47 1005.25
Thickness
5661 5661 5662 5663 5664 5665 5665 5665 5666 5667 5667 5668 5669 5670 5670 5673 5680 5693 5712 5724 5726 5721 5717 5719 5730 5731 5727 5726 5739 5744 5721 5733 5757 5769 5785 5816 5819 5850 5860 5848 5854 5859 5857 5855 5855
5656 5656 5656 5657 5657 5657 5657 5657 5658 5659 5659 5659 5660 5660 5660 5661 5672 5692 5723 5722 5723 5716 5709 5708 5713 5724 5714 5724 5729 5728 5724 5745 5770 5783 5787 5808 5815 5829 5832 5827 5829 5837 5852 5856 5842
5652 5652 5651 5651 5650 5650 5650 5649 5649 5649 5648 5647 5647 5648 5648 5647 5667 5716 5720 5717 5719 5709 5706 5708 5707 5713 5711 5719 5726 5730 5738 5752 5764 5777 5789 5797 5805 5826 5820 5800 5815 5815 5830 5842 5830
5646 5647 5647 5647 5647 5646 5644 5642 5641 5639 5636 5633 5632 5630 5630 5634 5671 5710 5701 5699 5701 5699 5695 5694 5696 5694 5705 5711 5724 5718 5742 5747 5758 5774 5778 5784 5801 5803 5811 5799 5817 5822 5830 5836 5822
5641 5641 5640 5639 5639 5638 5637 5635 5632 5630 5626 5622 5616 5610 5612 5632 5672 5676 5681 5683 5681 5682 5684 5683 5680 5685 5694 5710 5716 5721 5734 5741 5752 5758 5767 5775 5779 5786 5791 5805 5812 5815 5819 5824 5821
5634 5633 5632 5632 5632 5631 5629 5627 5624 5620 5615 5608 5599 5593 5593 5618 5654 5661 5671 5670 5669 5666 5672 5677 5681 5688 5691 5699 5711 5726 5725 5734 5746 5753 5759 5758 5767 5771 5787 5799 5797 5798 5803 5813 5818
5629 5627 5625 5624 5621 5620 5618 5617 5615 5610 5600 5594 5584 5574 5579 5624 5628 5637 5638 5647 5654 5659 5661 5671 5678 5678 5687 5690 5712 5714 5707 5726 5740 5747 5749 5754 5747 5763 5783 5784 5782 5785 5792 5800 5804
5620 5617 5614 5611 5609 5607 5605 5603 5601 5597 5586 5577 5570 5561 5570 5602 5605 5603 5604 5614 5626 5640 5647 5656 5663 5665 5671 5686 5688 5693 5697 5699 5740 5740 5746 5737 5745 5762 5773 5770 5772 5778 5784 5789 5796
5611 5608 5604 5600 5597 5594 5590 5591 5590 5588 5565 5552 5541 5538 5559 5582 5577 5575 5583 5587 5597 5607 5620 5636 5639 5644 5651 5651 5656 5678 5689 5699 5713 5740 5734 5735 5759 5752 5767 5767 5765 5769 5773 5779 5785
5603 5599 5596 5591 5587 5581 5578 5579 5582 5568 5544 5525 5511 5498 5532 5543 5555 5553 5558 5564 5562 5576 5580 5595 5605 5609 5626 5634 5647 5678 5683 5699 5700 5721 5728 5730 5738 5742 5760 5764 5765 5767 5769 5773 5779
5593 5588 5584 5578 5576 5570 5564 5563 5565 5551 5529 5503 5512 5511 5527 5537 5545 5543 5550 5542 5545 5549 5549 5571 5562 5579 5624 5643 5665 5679 5681 5685 5707 5725 5719 5731 5727 5738 5752 5760 5760 5768 5768 5772 5777
5584 5579 5575 5571 5567 5558 5542 5538 5520 5507 5518 5511 5526 5530 5524 5527 5520 5535 5546 5535 5529 5519 5552 5555 5549 5590 5613 5621 5632 5645 5655 5676 5705 5717 5718 5724 5728 5740 5748 5755 5760 5763 5770 5773 5774
5576 5573 5569 5565 5558 5551 5542 5521 5513 5505 5494 5520 5524 5535 5525 5521 5516 5531 5539 5537 5530 5529 5531 5549 5567 5589 5585 5596 5613 5630 5640 5665 5683 5719 5725 5723 5720 5727 5742 5752 5758 5766 5773 5778 5776
5567 5567 5564 5553 5557 5544 5533 5515 5509 5501 5494 5522 5506 5532 5529 5515 5517 5528 5526 5524 5526 5526 5538 5541 5574 5587 5588 5587 5607 5616 5652 5664 5676 5690 5693 5726 5694 5722 5725 5736 5750 5761 5769 5774 5778
5560 5556 5552 5538 5537 5536 5524 5520 5510 5491 5492 5528 5541 5551 5544 5525 5532 5529 5526 5528 5521 5531 5532 5532 5555 5564 5572 5600 5611 5620 5655 5652 5659 5676 5693 5710 5690 5715 5721 5720 5749 5763 5767 5771 5776
5558 5554 5542 5545 5534 5526 5521 5517 5505 5487 5505 5538 5536 5539 5540 5535 5533 5532 5513 5525 5532 5526 5532 5548 5565 5575 5571 5601 5615 5632 5634 5648 5655 5662 5650 5688 5692 5695 5716 5742 5751 5760 5768 5769 5773
5554 5554 5541 5534 5537 5532 5523 5510 5503 5511 5528 5523 5530 5536 5531 5524 5529 5529 5524 5519 5513 5513 5511 5535 5555 5570 5567 5579 5595 5609 5620 5614 5609 5625 5632 5678 5691 5710 5736 5751 5758 5762 5766 5769 5771
5554 5556 5557 5548 5537 5535 5529 5516 5517 5521 5517 5523 5527 5534 5532 5529 5524 5529 5521 5515 5542 5529 5531 5523 5561 5577 5581 5587 5592 5591 5617 5617 5588 5604 5636 5680 5684 5716 5752 5759 5772 5773 5771 5768 5765
5557 5568 5568 5551 5543 5539 5532 5522 5507 5513 5518 5520 5524 5528 5526 5523 5520 5527 5524 5501 5512 5512 5525 5541 5550 5560 5579 5597 5599 5607 5597 5642 5634 5649 5653 5673 5700 5723 5743 5745 5759 5767 5766 5761 5761
5553 5565 5566 5555 5551 5544 5532 5506 5517 5521 5521 5522 5511 5515 5509 5514 5517 5524 5530 5521 5509 5518 5515 5528 5538 5556 5561 5563 5600 5609 5634 5612 5627 5621 5636 5669 5675 5685 5719 5728 5737 5732 5748 5753 5757
5559 5571 5563 5556 5563 5544 5529 5523 5523 5527 5526 5517 5516 5509 5508 5513 5508 5515 5527 5532 5524 5522 5522 5528 5533 5537 5547 5561 5572 5601 5601 5626 5635 5629 5626 5659 5680 5714 5727 5731 5717 5702 5706 5720 5731
5555 5566 5569 5558 5545 5533 5525 5524 5521 5525 5527 5521 5514 5510 5506 5504 5509 5516 5524 5523 5521 5514 5507 5510 5511 5536 5556 5578 5594 5618 5592 5600 5619 5619 5638 5668 5685 5694 5733 5725 5701 5686 5689 5698 5707
5552 5565 5563 5549 5525 5522 5528 5522 5526 5525 5522 5516 5506 5512 5503 5496 5492 5514 5521 5529 5526 5518 5507 5499 5516 5544 5569 5573 5584 5588 5602 5608 5633 5634 5636 5647 5643 5655 5675 5672 5676 5681 5678 5680 5686
5544 5557 5549 5538 5528 5520 5529 5521 5528 5528 5523 5515 5512 5507 5506 5503 5505 5500 5511 5523 5524 5520 5516 5497 5509 5524 5553 5551 5575 5583 5596 5620 5620 5611 5626 5626 5626 5626 5639 5652 5652 5658 5665 5668 5672
5536 5529 5504 5517 5511 5510 5529 5534 5522 5514 5517 5520 5512 5510 5503 5496 5501 5523 5522 5516 5516 5529 5515 5494 5513 5538 5554 5550 5570 5590 5579 5603 5615 5625 5609 5632 5629 5621 5628 5635 5644 5647 5651 5655 5655
5509 5499 5492 5490 5509 5520 5531 5518 5514 5518 5506 5511 5499 5509 5510 5505 5499 5510 5514 5514 5503 5516 5499 5491 5519 5528 5550 5572 5586 5583 5593 5609 5624 5599 5600 5629 5616 5613 5617 5624 5629 5631 5638 5638 5639
5496 5489 5484 5490 5511 5515 5514 5507 5511 5506 5506 5505 5506 5505 5519 5525 5529 5535 5536 5535 5520 5513 5506 5501 5521 5544 5593 5605 5608 5598 5614 5608 5619 5607 5606 5602 5602 5600 5603 5608 5614 5618 5619 5624 5626